Overview Statistics Trail Chart Weather Telemetry Raw packets
 

This is the latest recevied weather packets stored in our database for station/object 4S6DRJ-13. If no packets are shown the sender has not sent any weather packets the latest 10 day(s).

<< 332 333 334 335 336 337 338 >>
Time Temp. Humidity Pressure Rain* Wind** Luminosity Snow
1787971566 28.89° C 80% 1010.8 hPa 0 mm 1.34 m/s, 228° 174 W/m² -
1787971511 28.89° C 81% 1010.5 hPa 0 mm 2.24 m/s, 251° 446 W/m² -
1787971444 28.89° C 81% 1010.7 hPa 0 mm 1.34 m/s, 228° 501 W/m² -
1787971384 28.89° C 81% 1010.6 hPa 0 mm 2.68 m/s, 242° 529 W/m² -
1787971322 28.89° C 81% 1010.6 hPa 0 mm 1.34 m/s, 266° 218 W/m² -
1787971261 28.89° C 81% 1010.6 hPa 0 mm 2.24 m/s, 284° 241 W/m² -
1787971200 28.89° C 81% 1010.6 hPa 0 mm 0.89 m/s, 240° 427 W/m² -
1787971139 28.89° C 81% 1010.6 hPa 0 mm 1.79 m/s, 306° 448 W/m² -
1787971078 28.89° C 82% 1010.5 hPa 0 mm 2.24 m/s, 298° 490 W/m² -
1787971017 28.89° C 82% 1010.4 hPa 0 mm 0.89 m/s, 292° 472 W/m² -
1787970956 28.89° C 82% 1010.4 hPa 0 mm 1.34 m/s, 221° 432 W/m² -
1787970895 28.89° C 82% 1010.5 hPa 0 mm 0.89 m/s, 256° 367 W/m² -
1787970834 28.89° C 82% 1010.4 hPa 0 mm 1.79 m/s, 238° 162 W/m² -
1787970773 28.89° C 82% 1010.4 hPa 0 mm 1.79 m/s, 203° 170 W/m² -
1787970712 28.89° C 83% 1010.6 hPa 0 mm 0.45 m/s, 201° 218 W/m² -
1787970651 28.89° C 82% 1010.5 hPa 0 mm 0.89 m/s, 229° 189 W/m² -
1787970590 29.44° C 82% 1010.3 hPa 0 mm 1.34 m/s, 272° 163 W/m² -
1787970529 29.44° C 82% 1010.6 hPa 0 mm 1.79 m/s, 55° 177 W/m² -
1787970468 29.44° C 82% 1010.6 hPa 0 mm 0.89 m/s, 144° 295 W/m² -
1787970407 29.44° C 82% 1010.3 hPa 0 mm 0.45 m/s, 293° 168 W/m² -
1787970347 29.44° C 82% 1010.3 hPa 0 mm 0.89 m/s, 263° 145 W/m² -
1787970285 28.89° C 83% 1010.4 hPa 0 mm 0.89 m/s, 208° 331 W/m² -
1787970224 28.89° C 83% 1010.3 hPa 0 mm 0.45 m/s, 240° 407 W/m² -
1787970163 28.89° C 83% 1010.4 hPa 0 mm 0.89 m/s, 237° 257 W/m² -
1787970102 28.89° C 83% 1010.3 hPa 0 mm 0 m/s 391 W/m² -

* Rain latest hour (hover to see other rain measurements)
** Current wind speed in m/s (hover to see current wind gust speed)